STARLINK-5791, 57146

Orbit data source: Space-Track

STARLINK-5791, 57146 is a payload satellite owned by SpaceX/Seattle (US) in LEO that was launched on Fri, 23 Jun 2023 UTC via an FALCON 9 launch vehicle from the Air Force Eastern Test Range (AFETR). Payload-class satellites include a variety of spacecraft equipped with specific instruments for various scientific and technological missions. These include communications satellites like Starlink; space stations such as the ISS; scientific satellites like the Hubble; Earth observation satellites from companies like Planet Labs, Umbra, and HawkEye 360; GPS; miniature CubeSats for education and research; and military/defense satellites.

Loading next visibility...
Identifier
57146, 2023-090AX
Orbit
LEO
Country
Flag of USUS
Related business
Manufacturer
SpaceX/Seattle
Mission
Operational Commercial Communications
Bus & Motor
STARLINK, Unknown motor
Mass
305 kg wet, ~290 kg dry
Launch date (UTC)
2023-06-23 (3 years ago)
Launch vehicle
FALCON 9
Launch site
Air Force Eastern Test Range (AFETR)
Object type
Payload
Rocket body
Debris
Shape & HBR
Box + 1 Pan, 10.1 m
Radar Cross Section
11.087 m², Large (>1 m²)

Expand to show TLE details & history
Last TLE update: 2 days ago

TLE from 2 days ago
0 STARLINK-5791
1 57146U 23090AX  26171.07574617 -.00012381  00000-0 -44079-3 0  9995
2 57146  43.0013  44.9739 0001184  12.6506 347.4375 15.27604335166019
Epoch: 2026-06-20T01:49Z
TLE epoch observation values (Epoch: 2026-06-20T01:49:04.469Z)
Latitude
-0.00002°
Longitude
109.40969°
Altitude
481.959 km
Speed
7.627 km/s
True Right ascension
02h 59m 53s
True Declination
0° 00' 00"
Sunlit
Object was in daylight at epoch
Visualization orbit readout
Latitude
Unknown
Longitude
Unknown
Altitude
Unknown
Speed
Unknown
Apparent Right ascension
Unknown
Apparent Declination
Unknown
Sunlit
N/A
Visualization observer readout
Local Sidereal Time
21:30:23
Azimuth
Unknown
Elevation
Unknown
Doppler factor
Unknown
Orbital elements
Apogee altitude
485.734 km
Perigee altitude
484.109 km
Semi-major axis
6,863.058 km
Eccentricity
0.00012
Inclination
43.0013°
RAAN
44.9739°
Arg. of periapsis
12.6506°
True anomaly
347.43455°
Mean anomaly
347.4375°
Eccentric anomaly
347.43602°
Mean motion
3.81739 °/min
Orbital period
94.31 mins
BSTAR
-0.00044079
Loading maneuver chart data...
Computing Atmospheric mass density...
Loading historical data...
Loading historical data...
Loading historical data...
Loading historical data...
Loading historical data...
Loading historical data...
Loading historical data...

Documentation

Showing up to 5 results
|